Weather in Obkhod

Russia / Nizhny Novgorod Oblast'     57°34′05″N   46°13′21″E
В апреле 2022 года жителям России запретили посещать сайт meteo.paraplan.net по решению Генеральной прокуратуры. Аудитория сайта уменьшилась в 10 раз. Владельцы сайта не видят смысла в поддержке погодного сервера в таких условиях. Сайт будет закрыт в октябре.
temp.,
°C
wind,
m/s
gust,
m/s
humid.,
%
clouds,
%
prec.,
mm/h
press.,
hPa
HPBL,
m
30 september, fri
fri3000:00+4ese2399100 0.2 1018136
03:00+5ese1199100 0.2 101954
06:00+6ese2398100 0.0 102193
09:00+9se3489100 0.0 1021239
12:00+12sse3578100 0.0 1022709
15:00+13sse467646 0.0 1022775
18:00+9sse41092100 0.0 1022370
21:00+10se41193100 0.0 1022384
1 october, sat
sat100:00+9sse41293100 0.0 1021408
03:00+8sse4119782 0.0 1021293
06:00+7sse41197100 0.0 1021275
09:00+10sse41193100 0.4 1020396
12:00+14sse4981100 0.3 1019622
15:00+13sse41087100 0.3 1017617
18:00+13sse51295100 3.1 1016567
21:00+13sse51395100 4.4 1014575
2 october, sun
sun200:00+13s51395100 3.7 1012604
03:00+13sse5129592 5.4 1011562
06:00+13sse51295100 0.4 1009576
09:00+13sse51393100 1.1 1007635
12:00+14ssw51294100 0.3 1007861
15:00+14sw6127772 0.8 10071328
18:00+10sw4118585 0.0 1009422
21:00+9ssw3991100 0.0 1010252
3 october, mon
mon300:00+8ssw379466 0.0 1010160
03:00+9sse1288100 0.0 101042
06:00+9e3591100 0.0 1010101
09:00+13ese4991100 0.0 1009366
12:00+17sse51182100 0.4 1009691
15:00+18sse61268100 0.4 1009927
18:00+16sse61466100 0.0 1010975
21:00+14sse61681100 0.6 1011852
4 october, tue
tue400:00+14sse71778100 1.0 10121131
03:00+13sse61577100 1.1 10131002
06:00+11sse71485100 0.3 1014846
09:00+11sse71391100 1.4 1016805
12:00+10sse61286100 0.4 1018717
15:00+9sse51187100 0.7 1019639
18:00+9sse41089100 0.9 1020482
21:00+9s4109597 0.9 1021398